sat.trackr.live / text

‹ back to catalog

HELLAS-SAT 3

NORAD 42814 · 2017-040A

PAYLOAD ACTIVE UNKNOWN

§ Identity

Operator
Country
GREC
Launch date
2017-06-28
Launch site
FRGUI
Launch vehicle
Mass (kg)
RCS (m²)

Purposes: comms

External: N2YO · Heavens-Above · Gunter

§ Orbital elements

Epoch: 2026-09-19T18:36:38.867040Z

Period
1,436.12 min
Inclination
0.0611°
Eccentricity
0.0001816
Mean motion
1.00270167 rev/d
Perigee alt
35,779.4 km
Apogee alt
35,794.7 km
Semi-major
42,165.2 km
B*
0.0000e+0
RAAN
37.1744°
Arg perigee
63.6421°
Mean anomaly
216.0462°
Rev number
3,375

§ Raw data

HELLAS-SAT 31 42814U 17040A   26262.77544985  .00000148  00000+0  00000+0 0  99992 42814   0.0611  37.1744 0001816  63.6421 216.0462  1.00270167 33756

JSON: /api/v1/satellites/42814 · /tle

For live sub-satellite position, see the globe view (requires WebGL).

§ Visibility from observer

Set your observer location to see the next 7 days of passes ≥ 10°. The values pass through the URL so the page stays shareable.

No JS? Fill the form by hand. The geolocation button needs JavaScript.